| time (UTC) | temp F | wind direction | speed MPH | gust MPH | rain 1hr in | rain 24hr in | rain mn in | humidity % | barometer mb |
| 20260503043006 | 59 | 113 | 0.0 | 0.0 | 0.00 | 0.00 | 0.00 | 83 | 1020.5 |
| 20260503041502 | 60 | 113 | 0.0 | 0.0 | 0.00 | 0.00 | 0.00 | 83 | 1020.5 |
| 20260503040001 | 60 | 113 | 0.0 | 0.0 | 0.00 | 0.00 | 0.00 | 82 | 1020.7 |
| 20260503034503 | 61 | 113 | 0.0 | 0.0 | 0.00 | 0.00 | 0.00 | 80 | 1020.4 |
| 20260503033105 | 61 | 113 | 0.0 | 0.0 | 0.00 | 0.00 | 0.00 | 80 | 1020.2 |
| 20260503031559 | 62 | 113 | 0.0 | 0.0 | 0.00 | 0.00 | 0.00 | 79 | 1020.2 |
| 20260503030059 | 62 | 113 | 0.0 | 0.0 | 0.00 | 0.00 | 0.00 | 78 | 1019.9 |
| 20260503024605 | 63 | 113 | 0.0 | 0.0 | 0.00 | 0.00 | 0.00 | 78 | 1019.9 |
| 20260503023100 | 64 | 113 | 0.0 | 0.0 | 0.00 | 0.00 | 0.00 | 76 | 1019.8 |
| 20260503021557 | 65 | 113 | 0.0 | 1.0 | 0.00 | 0.00 | 0.00 | 76 | 1019.7 |
| 20260503014619 | 65 | 316 | 0.0 | 0.0 | 0.00 | 0.00 | 0.00 | 65 | 1019.4 |
| 20260503013057 | 67 | 316 | 0.0 | 0.0 | 0.00 | 0.00 | 0.00 | 61 | 1019.1 |
| 20260503011557 | 69 | 316 | 0.0 | 0.0 | 0.00 | 0.00 | 0.00 | 59 | 1019.0 |
| 20260503010055 | 71 | 316 | 0.0 | 1.0 | 0.00 | 0.00 | 0.00 | 55 | 1018.9 |
| 20260503004554 | 72 | 20 | 0.0 | 3.0 | 0.00 | 0.00 | 0.00 | 53 | 1018.8 |
| 20260503003055 | 73 | 69 | 0.0 | 1.0 | 0.00 | 0.00 | 0.00 | 52 | 1018.4 |
| 20260503001554 | 73 | 318 | 0.0 | 3.0 | 0.00 | 0.00 | 0.00 | 51 | 1018.4 |
| 20260503000054 | 74 | 22 | 1.0 | 3.0 | 0.00 | 0.00 | 0.00 | 50 | 1018.3 |
| 20260502234554 | 75 | 3 | 0.0 | 3.0 | 0.00 | 0.00 | 0.00 | 51 | 1018.3 |
| 20260502233054 | 75 | 308 | 2.0 | 8.0 | 0.00 | 0.00 | 0.00 | 48 | 1018.2 |
| 20260502231602 | 76 | 315 | 1.0 | 6.0 | 0.00 | 0.00 | 0.00 | 47 | 1018.2 |
| 20260502230050 | 77 | 323 | 0.0 | 4.0 | 0.00 | 0.00 | 0.00 | 48 | 1018.2 |
| 20260502224551 | 77 | 44 | 1.0 | 8.0 | 0.00 | 0.00 | 0.00 | 48 | 1018.0 |
| 20260502223050 | 77 | 41 | 1.0 | 7.0 | 0.00 | 0.00 | 0.00 | 48 | 1018.1 |
| 20260502221549 | 77 | 13 | 2.0 | 8.0 | 0.00 | 0.00 | 0.00 | 46 | 1018.2 |
| 20260502220055 | 78 | 353 | 2.0 | 11.0 | 0.00 | 0.00 | 0.00 | 47 | 1018.3 |
| 20260502214547 | 77 | 345 | 3.0 | 7.0 | 0.00 | 0.00 | 0.00 | 47 | 1018.3 |
| 20260502213045 | 77 | 122 | 2.0 | 7.0 | 0.00 | 0.00 | 0.00 | 47 | 1018.4 |
| 20260502211548 | 77 | 307 | 2.0 | 6.0 | 0.00 | 0.00 | 0.00 | 48 | 1018.5 |
| 20260502210048 | 77 | 41 | 1.0 | 6.0 | 0.00 | 0.00 | 0.00 | 47 | 1018.6 |
| 20260502204542 | 77 | 316 | 3.0 | 7.0 | 0.00 | 0.00 | 0.00 | 47 | 1018.8 |
| 20260502203041 | 76 | 1 | 2.0 | 12.0 | 0.00 | 0.00 | 0.00 | 47 | 1018.9 |
| 20260502201538 | 76 | 134 | 2.0 | 12.0 | 0.00 | 0.00 | 0.00 | 52 | 1019.1 |
| 20260502200037 | 76 | 334 | 3.0 | 8.0 | 0.00 | 0.00 | 0.00 | 48 | 1019.3 |
| 20260502194535 | 76 | 19 | 2.0 | 11.0 | 0.00 | 0.00 | 0.00 | 49 | 1019.5 |
| 20260502193036 | 76 | 309 | 4.0 | 11.0 | 0.00 | 0.00 | 0.00 | 48 | 1019.7 |
| 20260502191531 | 75 | 84 | 4.0 | 8.0 | 0.00 | 0.00 | 0.00 | 51 | 1019.8 |
| 20260502190032 | 74 | 123 | 4.0 | 11.0 | 0.00 | 0.00 | 0.00 | 48 | 1019.9 |
| 20260502184533 | 74 | 2 | 2.0 | 9.0 | 0.00 | 0.00 | 0.00 | 54 | 1020.2 |
| 20260502183027 | 74 | 314 | 2.0 | 10.0 | 0.00 | 0.00 | 0.00 | 51 | 1020.2 |
| 20260502181522 | 73 | 345 | 3.0 | 10.0 | 0.00 | 0.00 | 0.00 | 53 | 1020.5 |
| 20260502163010 | 69 | 270 | 2.0 | 10.0 | 0.00 | 0.45 | 0.00 | 59 | 1020.9 |
| 20260502161508 | 69 | 357 | 2.0 | 7.0 | 0.00 | 0.45 | 0.00 | 61 | 1021.0 |
| 20260502151609 | 66 | 98 | 2.0 | 8.0 | 0.00 | 0.57 | 0.00 | 71 | 1020.8 |
| 20260502123024 | 54 | 328 | 0.0 | 4.0 | 0.00 | 0.82 | 0.00 | 93 | 1019.1 |
| 20260502121524 | 53 | 325 | 0.0 | 4.0 | 0.00 | 0.82 | 0.00 | 93 | 1018.9 |
| 20260502114519 | 53 | 321 | 1.0 | 6.0 | 0.00 | 0.82 | 0.00 | 93 | 1018.4 |
| 20260502113019 | 53 | 338 | 0.0 | 3.0 | 0.00 | 0.82 | 0.00 | 92 | 1018.5 |
| 20260502111522 | 53 | 316 | 0.0 | 4.0 | 0.00 | 0.82 | 0.00 | 92 | 1018.5 |
| 20260502110013 | 53 | 316 | 0.0 | 2.0 | 0.00 | 0.82 | 0.00 | 92 | 1018.1 |
| 20260502104511 | 53 | 311 | 0.0 | 2.0 | 0.00 | 0.84 | 0.00 | 92 | 1017.9 |
| 20260502103010 | 53 | 312 | 0.0 | 2.0 | 0.00 | 0.84 | 0.00 | 92 | 1017.8 |
| 20260502101510 | 54 | 36 | 0.0 | 1.0 | 0.00 | 0.84 | 0.00 | 91 | 1017.6 |
| 20260502080105 | 55 | 51 | 0.0 | 5.0 | 0.00 | 1.24 | 0.00 | 94 | 1016.1 |
| 20260502070049 | 55 | 34 | 0.0 | 4.0 | 0.00 | 1.48 | 0.00 | 94 | 1016.2 |
| 20260502064548 | 56 | 62 | 0.0 | 5.0 | 0.00 | 1.52 | 0.00 | 95 | 1016.1 |
| 20260502063047 | 56 | 4 | 1.0 | 4.0 | 0.00 | 1.52 | 0.00 | 96 | 1016.2 |
| 20260502061546 | 56 | 12 | 0.0 | 4.0 | 0.00 | 1.52 | 0.00 | 96 | 1016.0 |
| 20260502060045 | 56 | 5 | 0.0 | 7.0 | 0.00 | 1.52 | 0.00 | 96 | 1015.8 |
| 20260502054547 | 56 | 53 | 1.0 | 6.0 | 0.00 | 1.55 | 0.00 | 96 | 1015.8 |
| 20260502053052 | 56 | 28 | 0.0 | 4.0 | 0.00 | 1.55 | 0.00 | 97 | 1016.0 |
| 20260502051554 | 56 | 347 | 2.0 | 8.0 | 0.00 | 1.55 | 0.00 | 97 | 1015.7 |
| 20260502050040 | 56 | 347 | 0.0 | 7.0 | 0.00 | 1.55 | 0.00 | 97 | 1015.6 |
| 20260502044541 | 56 | 23 | 2.0 | 8.0 | 0.00 | 1.67 | 0.00 | 97 | 1015.5 |